Time,TemperatureF,DewpointF,PressureIn,WindDirection,WindDirectionDegrees,WindSpeedMPH,WindSpeedGustMPH,Humidity,HourlyPrecipIn,Conditions,Clouds,dailyrainin,SolarRadiationWatts/m^2,SoftwareType,DateUTC
2013-01-26 00:05:00,26.0,23.2,30.02,North,32767,-999.0,0.0,89,0.00,,,0.00,0,Wunderground v.1.15,2013-01-26 05:05:00,
2013-01-26 00:10:00,26.0,23.2,30.02,North,32767,-999.0,0.0,89,0.00,,,0.00,0,Wunderground v.1.15,2013-01-26 05:10:00,
2013-01-26 00:15:00,26.0,23.2,30.02,North,32767,-999.0,0.0,89,0.00,,,0.00,0,Wunderground v.1.15,2013-01-26 05:15:00,
2013-01-26 00:20:00,26.0,23.2,30.01,North,32767,-999.0,0.0,89,0.00,,,0.00,0,Wunderground v.1.15,2013-01-26 05:20:00,
2013-01-26 00:25:00,26.0,23.2,30.01,North,32767,-999.0,0.0,89,0.00,,,0.00,0,Wunderground v.1.15,2013-01-26 05:25:00,
2013-01-26 00:35:00,26.0,23.2,30.02,North,32767,-999.0,0.0,89,0.00,,,0.00,0,Wunderground v.1.15,2013-01-26 05:35:00,
2013-01-26 00:40:00,26.0,23.2,30.02,North,32767,-999.0,0.0,89,0.00,,,0.00,0,Wunderground v.1.15,2013-01-26 05:40:00,
2013-01-26 00:45:00,26.1,23.3,30.02,North,32767,-999.0,0.0,89,0.00,,,0.00,0,Wunderground v.1.15,2013-01-26 05:45:00,
2013-01-26 00:55:00,26.3,23.5,30.02,North,32767,-999.0,0.0,89,0.00,,,0.00,0,Wunderground v.1.15,2013-01-26 05:55:00,
2013-01-26 01:00:00,26.1,23.3,30.02,North,32767,-999.0,0.0,89,0.00,,,0.00,0,Wunderground v.1.15,2013-01-26 06:00:00,
2013-01-26 01:10:00,26.1,23.3,30.01,North,32767,-999.0,0.0,89,0.00,,,0.00,0,Wunderground v.1.15,2013-01-26 06:10:00,
2013-01-26 01:15:00,26.1,23.6,30.01,North,32767,-999.0,0.0,90,0.00,,,0.00,0,Wunderground v.1.15,2013-01-26 06:15:00,
2013-01-26 01:25:00,26.4,23.9,30.00,North,32767,-999.0,0.0,90,0.00,,,0.00,0,Wunderground v.1.15,2013-01-26 06:25:00,
2013-01-26 01:30:00,26.4,23.6,30.00,North,32767,-999.0,0.0,89,0.00,,,0.00,0,Wunderground v.1.15,2013-01-26 06:30:00,
2013-01-26 01:40:00,26.4,23.6,30.00,North,32767,-999.0,0.0,89,0.00,,,0.00,0,Wunderground v.1.15,2013-01-26 06:40:00,
2013-01-26 01:45:00,26.4,23.6,30.00,North,32767,-999.0,0.0,89,0.00,,,0.00,0,Wunderground v.1.15,2013-01-26 06:45:00,
2013-01-26 01:55:00,26.4,23.9,30.00,North,32767,-999.0,0.0,90,0.00,,,0.00,0,Wunderground v.1.15,2013-01-26 06:55:00,
2013-01-26 02:00:00,26.4,23.9,30.00,North,32767,-999.0,0.0,90,0.00,,,0.00,0,Wunderground v.1.15,2013-01-26 07:00:00,
2013-01-26 02:05:00,26.4,23.9,30.00,North,32767,-999.0,0.0,90,0.00,,,0.00,0,Wunderground v.1.15,2013-01-26 07:05:00,
2013-01-26 02:15:00,26.6,24.1,30.00,North,32767,-999.0,0.0,90,0.00,,,0.00,0,Wunderground v.1.15,2013-01-26 07:15:00,
2013-01-26 02:20:00,26.6,24.1,30.00,North,32767,-999.0,0.0,90,0.00,,,0.00,0,Wunderground v.1.15,2013-01-26 07:20:00,
2013-01-26 02:25:00,26.6,24.1,30.00,North,32767,-999.0,0.0,90,0.00,,,0.00,0,Wunderground v.1.15,2013-01-26 07:25:00,
2013-01-26 02:35:00,26.7,24.2,30.00,North,32767,-999.0,0.0,90,0.00,,,0.00,0,Wunderground v.1.15,2013-01-26 07:35:00,
2013-01-26 02:45:00,26.9,24.4,30.00,North,32767,-999.0,0.0,90,0.00,,,0.00,0,Wunderground v.1.15,2013-01-26 07:45:00,
2013-01-26 02:50:00,26.9,24.4,30.00,North,32767,-999.0,0.0,90,0.00,,,0.00,0,Wunderground v.1.15,2013-01-26 07:50:00,
2013-01-26 03:00:00,26.9,24.4,30.00,North,32767,-999.0,0.0,90,0.00,,,0.00,0,Wunderground v.1.15,2013-01-26 08:00:00,
2013-01-26 03:05:00,26.9,24.4,30.00,North,32767,-999.0,0.0,90,0.00,,,0.00,0,Wunderground v.1.15,2013-01-26 08:05:00,
2013-01-26 03:15:00,26.9,24.4,30.00,North,32767,-999.0,0.0,90,0.00,,,0.00,0,Wunderground v.1.15,2013-01-26 08:15:00,
2013-01-26 03:20:00,27.0,24.5,30.00,North,32767,-999.0,0.0,90,0.00,,,0.00,0,Wunderground v.1.15,2013-01-26 08:20:00,
2013-01-26 03:25:00,27.0,24.5,30.00,North,32767,-999.0,0.0,90,0.00,,,0.00,0,Wunderground v.1.15,2013-01-26 08:25:00,
2013-01-26 03:30:00,27.2,24.7,30.00,North,32767,-999.0,0.0,90,0.00,,,0.00,0,Wunderground v.1.15,2013-01-26 08:30:00,
2013-01-26 03:40:00,27.3,24.8,30.00,North,32767,-999.0,0.0,90,0.00,,,0.00,0,Wunderground v.1.15,2013-01-26 08:40:00,
2013-01-26 03:50:00,27.3,24.8,30.00,North,32767,-999.0,0.0,90,0.00,,,0.00,0,Wunderground v.1.15,2013-01-26 08:50:00,
2013-01-26 03:55:00,27.2,24.7,30.00,North,32767,-999.0,0.0,90,0.00,,,0.00,0,Wunderground v.1.15,2013-01-26 08:55:00,
2013-01-26 04:05:00,27.2,24.7,30.01,North,32767,-999.0,0.0,90,0.00,,,0.00,0,Wunderground v.1.15,2013-01-26 09:05:00,
2013-01-26 04:10:00,27.2,24.7,30.01,North,32767,-999.0,0.0,90,0.00,,,0.00,0,Wunderground v.1.15,2013-01-26 09:10:00,
2013-01-26 04:15:00,27.3,24.8,30.01,North,32767,-999.0,0.0,90,0.00,,,0.00,0,Wunderground v.1.15,2013-01-26 09:15:00,
2013-01-26 04:25:00,27.5,25.2,30.01,North,32767,-999.0,0.0,91,0.00,,,0.00,0,Wunderground v.1.15,2013-01-26 09:25:00,
2013-01-26 04:35:00,27.5,25.2,30.00,North,32767,-999.0,0.0,91,0.00,,,0.00,0,Wunderground v.1.15,2013-01-26 09:35:00,
2013-01-26 04:45:00,27.5,25.2,30.00,North,32767,-999.0,0.0,91,0.00,,,0.00,0,Wunderground v.1.15,2013-01-26 09:45:00,
2013-01-26 04:50:00,27.6,25.3,30.00,North,32767,-999.0,0.0,91,0.00,,,0.00,0,Wunderground v.1.15,2013-01-26 09:50:00,
2013-01-26 05:00:00,27.8,25.2,30.00,North,32767,-999.0,0.0,90,0.00,,,0.00,0,Wunderground v.1.15,2013-01-26 10:00:00,
2013-01-26 05:10:00,27.9,25.3,30.00,North,32767,-999.0,0.0,90,0.00,,,0.00,0,Wunderground v.1.15,2013-01-26 10:10:00,
2013-01-26 05:15:00,27.9,25.3,30.00,North,32767,-999.0,0.0,90,0.00,,,0.00,0,Wunderground v.1.15,2013-01-26 10:15:00,
2013-01-26 05:20:00,27.9,25.3,30.01,North,32767,-999.0,0.0,90,0.00,,,0.00,0,Wunderground v.1.15,2013-01-26 10:20:00,
2013-01-26 05:30:00,27.9,25.3,30.01,North,32767,-999.0,0.0,90,0.00,,,0.00,0,Wunderground v.1.15,2013-01-26 10:30:00,
2013-01-26 05:35:00,28.1,25.5,30.01,North,32767,-999.0,0.0,90,0.00,,,0.00,0,Wunderground v.1.15,2013-01-26 10:35:00,
2013-01-26 05:45:00,28.1,25.5,30.01,North,32767,-999.0,0.0,90,0.00,,,0.00,0,Wunderground v.1.15,2013-01-26 10:45:00,
2013-01-26 05:50:00,28.1,25.5,30.02,North,32767,-999.0,0.0,90,0.00,,,0.00,0,Wunderground v.1.15,2013-01-26 10:50:00,
2013-01-26 06:00:00,28.2,25.6,30.02,North,32767,-999.0,0.0,90,0.00,,,0.00,0,Wunderground v.1.15,2013-01-26 11:00:00,
2013-01-26 06:05:00,28.4,25.8,30.03,North,32767,-999.0,0.0,90,0.00,,,0.00,0,Wunderground v.1.15,2013-01-26 11:05:00,
2013-01-26 06:15:00,28.4,25.8,30.03,North,32767,-999.0,0.0,90,0.00,,,0.00,0,Wunderground v.1.15,2013-01-26 11:15:00,
2013-01-26 06:20:00,28.4,25.8,30.04,North,32767,-999.0,0.0,90,0.00,,,0.00,0,Wunderground v.1.15,2013-01-26 11:20:00,
2013-01-26 06:30:00,28.7,26.1,30.04,North,32767,-999.0,0.0,90,0.00,,,0.00,0,Wunderground v.1.15,2013-01-26 11:30:00,
2013-01-26 06:40:00,28.8,26.2,30.04,North,32767,-999.0,0.0,90,0.00,,,0.00,0,Wunderground v.1.15,2013-01-26 11:40:00,
2013-01-26 06:45:00,29.0,26.4,30.04,North,32767,-999.0,0.0,90,0.00,,,0.00,0,Wunderground v.1.15,2013-01-26 11:45:00,
2013-01-26 06:50:00,28.8,25.7,30.05,North,32767,-999.0,0.0,88,0.00,,,0.00,0,Wunderground v.1.15,2013-01-26 11:50:00,
2013-01-26 06:55:00,28.7,25.9,30.05,North,32767,-999.0,0.0,89,0.00,,,0.00,0,Wunderground v.1.15,2013-01-26 11:55:00,
2013-01-26 07:05:00,29.0,26.2,30.06,North,32767,-999.0,0.0,89,0.00,,,0.00,0,Wunderground v.1.15,2013-01-26 12:05:00,
2013-01-26 07:10:00,29.1,26.3,30.06,North,32767,-999.0,0.0,89,0.00,,,0.00,0,Wunderground v.1.15,2013-01-26 12:10:00,
2013-01-26 07:20:00,29.1,26.0,30.06,North,32767,-999.0,0.0,88,0.00,,,0.00,0,Wunderground v.1.15,2013-01-26 12:20:00,
2013-01-26 07:25:00,29.3,26.2,30.06,North,32767,-999.0,0.0,88,0.00,,,0.00,0,Wunderground v.1.15,2013-01-26 12:25:00,
2013-01-26 07:30:00,29.1,26.0,30.06,North,32767,-999.0,0.0,88,0.00,,,0.00,0,Wunderground v.1.15,2013-01-26 12:30:00,
2013-01-26 07:35:00,29.1,26.3,30.07,North,32767,-999.0,0.0,89,0.00,,,0.00,0,Wunderground v.1.15,2013-01-26 12:35:00,
2013-01-26 07:45:00,29.3,26.5,30.07,North,32767,-999.0,0.0,89,0.00,,,0.00,5,Wunderground v.1.15,2013-01-26 12:45:00,
2013-01-26 07:50:00,29.4,26.6,30.08,North,32767,-999.0,0.0,89,0.00,,,0.00,5,Wunderground v.1.15,2013-01-26 12:50:00,
2013-01-26 07:55:00,29.4,26.3,30.08,North,32767,-999.0,0.0,88,0.00,,,0.00,7,Wunderground v.1.15,2013-01-26 12:55:00,
2013-01-26 08:05:00,29.8,26.4,30.09,North,32767,-999.0,0.0,87,0.00,,,0.00,14,Wunderground v.1.15,2013-01-26 13:05:00,
2013-01-26 08:10:00,30.1,26.7,30.09,North,32767,-999.0,0.0,87,0.00,,,0.00,18,Wunderground v.1.15,2013-01-26 13:10:00,
2013-01-26 08:15:00,30.1,26.7,30.09,North,32767,-999.0,0.0,87,0.00,,,0.00,19,Wunderground v.1.15,2013-01-26 13:15:00,
2013-01-26 08:20:00,30.0,26.6,30.10,North,32767,-999.0,0.0,87,0.00,,,0.00,28,Wunderground v.1.15,2013-01-26 13:20:00,
2013-01-26 08:30:00,29.7,26.3,30.10,North,32767,-999.0,0.0,87,0.00,,,0.00,28,Wunderground v.1.15,2013-01-26 13:30:00,
2013-01-26 08:40:00,29.4,26.3,30.10,North,32767,-999.0,0.0,88,0.00,,,0.00,39,Wunderground v.1.15,2013-01-26 13:40:00,
2013-01-26 08:45:00,29.4,26.3,30.10,North,32767,-999.0,0.0,88,0.00,,,0.00,42,Wunderground v.1.15,2013-01-26 13:45:00,
2013-01-26 08:50:00,29.5,26.7,30.11,North,32767,-999.0,0.0,89,0.00,,,0.00,46,Wunderground v.1.15,2013-01-26 13:50:00,
2013-01-26 09:00:00,29.4,26.6,30.11,North,32767,-999.0,0.0,89,0.00,,,0.00,46,Wunderground v.1.15,2013-01-26 14:00:00,
2013-01-26 09:05:00,29.4,26.6,30.12,North,32767,-999.0,0.0,89,0.00,,,0.00,58,Wunderground v.1.15,2013-01-26 14:05:00,
2013-01-26 09:10:00,29.4,26.6,30.12,North,32767,-999.0,0.0,89,0.00,,,0.00,65,Wunderground v.1.15,2013-01-26 14:10:00,
2013-01-26 09:20:00,29.5,26.9,30.13,North,32767,-999.0,0.0,90,0.00,,,0.00,63,Wunderground v.1.15,2013-01-26 14:20:00,
2013-01-26 09:25:00,29.7,27.1,30.13,North,32767,-999.0,0.0,90,0.00,,,0.00,65,Wunderground v.1.15,2013-01-26 14:25:00,
2013-01-26 09:30:00,29.8,27.2,30.13,North,32767,-999.0,0.0,90,0.00,,,0.00,72,Wunderground v.1.15,2013-01-26 14:30:00,
2013-01-26 09:35:00,30.0,27.4,30.13,North,32767,-999.0,0.0,90,0.00,,,0.00,81,Wunderground v.1.15,2013-01-26 14:35:00,
2013-01-26 09:45:00,30.3,27.4,30.13,North,32767,-999.0,0.0,89,0.00,,,0.00,97,Wunderground v.1.15,2013-01-26 14:45:00,
2013-01-26 09:50:00,30.6,27.7,30.14,North,32767,-999.0,0.0,89,0.00,,,0.00,93,Wunderground v.1.15,2013-01-26 14:50:00,
2013-01-26 09:55:00,30.9,28.0,30.14,North,32767,-999.0,0.0,89,0.00,,,0.00,97,Wunderground v.1.15,2013-01-26 14:55:00,
2013-01-26 10:05:00,31.3,28.2,30.14,North,32767,-999.0,0.0,88,0.00,,,0.00,91,Wunderground v.1.15,2013-01-26 15:05:00,
2013-01-26 10:10:00,31.3,28.2,30.14,North,32767,-999.0,0.0,88,0.00,,,0.00,104,Wunderground v.1.15,2013-01-26 15:10:00,
2013-01-26 10:15:00,31.3,28.2,30.14,North,32767,-999.0,0.0,88,0.00,,,0.00,113,Wunderground v.1.15,2013-01-26 15:15:00,
2013-01-26 10:25:00,31.0,27.9,30.15,North,0,0.0,0.0,88,0.00,,,0.00,127,Wunderground v.1.15,2013-01-26 15:25:00,
2013-01-26 10:35:00,31.0,27.9,30.15,North,0,0.0,0.0,88,0.00,,,0.00,139,Wunderground v.1.15,2013-01-26 15:35:00,
2013-01-26 10:40:00,31.0,28.1,30.15,North,0,0.0,0.0,89,0.00,,,0.00,158,Wunderground v.1.15,2013-01-26 15:40:00,
2013-01-26 10:50:00,31.6,28.5,30.15,North,0,0.0,0.0,88,0.00,,,0.00,187,Wunderground v.1.15,2013-01-26 15:50:00,
2013-01-26 11:00:00,32.2,28.8,30.15,North,0,0.0,0.0,87,0.00,,,0.00,197,Wunderground v.1.15,2013-01-26 16:00:00,
2013-01-26 11:10:00,32.4,29.0,30.16,North,0,0.0,0.0,87,0.00,,,0.00,206,Wunderground v.1.15,2013-01-26 16:10:00,
2013-01-26 11:20:00,32.4,29.0,30.16,North,0,0.0,0.0,87,0.00,,,0.00,183,Wunderground v.1.15,2013-01-26 16:20:00,
2013-01-26 11:30:00,32.7,29.3,30.16,North,0,0.0,0.0,87,0.00,,,0.00,179,Wunderground v.1.15,2013-01-26 16:30:00,
2013-01-26 11:35:00,32.9,29.5,30.15,North,0,0.0,0.0,87,0.00,,,0.00,174,Wunderground v.1.15,2013-01-26 16:35:00,
2013-01-26 11:40:00,33.1,29.7,30.15,North,0,0.0,0.0,87,0.00,,,0.00,164,Wunderground v.1.15,2013-01-26 16:40:00,
2013-01-26 11:45:00,33.1,29.4,30.15,North,0,0.0,0.0,86,0.00,,,0.00,165,Wunderground v.1.15,2013-01-26 16:45:00,
2013-01-26 11:55:00,33.2,29.5,30.15,North,0,0.0,0.0,86,0.00,,,0.00,169,Wunderground v.1.15,2013-01-26 16:55:00,
2013-01-26 12:00:00,33.5,29.8,30.15,North,0,0.0,0.0,86,0.00,,,0.00,167,Wunderground v.1.15,2013-01-26 17:00:00,
2013-01-26 12:10:00,33.7,29.7,30.14,North,0,0.0,0.0,85,0.00,,,0.00,185,Wunderground v.1.15,2013-01-26 17:10:00,
2013-01-26 12:20:00,33.7,29.7,30.14,North,359,0.0,0.0,85,0.00,,,0.00,179,Wunderground v.1.15,2013-01-26 17:20:00,
2013-01-26 12:25:00,33.7,29.7,30.14,North,359,0.0,0.0,85,0.00,,,0.00,181,Wunderground v.1.15,2013-01-26 17:25:00,
2013-01-26 12:35:00,34.3,30.3,30.13,North,359,0.0,0.0,85,0.00,,,0.00,252,Wunderground v.1.15,2013-01-26 17:35:00,
2013-01-26 12:40:00,34.7,30.4,30.13,North,359,0.0,0.0,84,0.00,,,0.00,287,Wunderground v.1.15,2013-01-26 17:40:00,
2013-01-26 12:50:00,35.2,31.1,30.13,NE,52,0.0,0.0,85,0.00,,,0.00,303,Wunderground v.1.15,2013-01-26 17:50:00,
2013-01-26 12:55:00,35.3,30.7,30.13,NE,47,0.0,0.0,83,0.00,,,0.00,329,Wunderground v.1.15,2013-01-26 17:55:00,
2013-01-26 13:05:00,35.6,30.9,30.13,North,0,0.0,0.0,83,0.00,,,0.00,329,Wunderground v.1.15,2013-01-26 18:05:00,
2013-01-26 13:15:00,36.5,30.9,30.13,NNE,17,0.0,0.0,80,0.00,,,0.00,213,Wunderground v.1.15,2013-01-26 18:15:00,
2013-01-26 13:25:00,36.3,30.1,30.12,NNE,17,0.0,1.0,78,0.00,,,0.00,230,Wunderground v.1.15,2013-01-26 18:25:00,
2013-01-26 13:35:00,36.8,31.5,30.12,North,0,0.0,0.0,81,0.00,,,0.00,209,Wunderground v.1.15,2013-01-26 18:35:00,
2013-01-26 13:40:00,36.9,31.0,30.12,North,353,0.0,0.0,79,0.00,,,0.00,172,Wunderground v.1.15,2013-01-26 18:40:00,
2013-01-26 13:50:00,37.3,31.1,30.12,North,0,0.0,0.0,78,0.00,,,0.00,195,Wunderground v.1.15,2013-01-26 18:50:00,
2013-01-26 14:00:00,37.9,31.3,30.12,NNE,31,0.0,0.0,77,0.00,,,0.00,190,Wunderground v.1.15,2013-01-26 19:00:00,
2013-01-26 14:10:00,37.8,31.2,30.12,NNE,31,0.0,0.0,77,0.00,,,0.00,185,Wunderground v.1.15,2013-01-26 19:10:00,
2013-01-26 14:15:00,37.8,30.3,30.12,North,359,0.0,0.0,74,0.00,,,0.00,181,Wunderground v.1.15,2013-01-26 19:15:00,
2013-01-26 14:25:00,38.0,30.8,30.12,NNW,329,0.0,0.0,75,0.00,,,0.00,148,Wunderground v.1.15,2013-01-26 19:25:00,
2013-01-26 14:35:00,38.3,30.4,30.12,ENE,68,0.0,0.0,73,0.00,,,0.00,164,Wunderground v.1.15,2013-01-26 19:35:00,
2013-01-26 14:45:00,38.9,31.3,30.12,North,6,0.0,0.0,74,0.00,,,0.00,255,Wunderground v.1.15,2013-01-26 19:45:00,
2013-01-26 14:50:00,39.2,30.6,30.12,North,6,0.0,0.0,71,0.00,,,0.00,185,Wunderground v.1.15,2013-01-26 19:50:00,
2013-01-26 14:55:00,39.5,30.9,30.12,North,6,0.0,0.0,71,0.00,,,0.00,211,Wunderground v.1.15,2013-01-26 19:55:00,
2013-01-26 15:00:00,39.8,32.2,30.12,North,6,0.0,0.0,74,0.00,,,0.00,158,Wunderground v.1.15,2013-01-26 20:00:00,
2013-01-26 15:05:00,39.9,30.5,30.12,North,6,0.0,0.0,69,0.00,,,0.00,209,Wunderground v.1.15,2013-01-26 20:05:00,
2013-01-26 15:15:00,39.9,29.8,30.12,North,6,0.0,0.0,67,0.00,,,0.00,160,Wunderground v.1.15,2013-01-26 20:15:00,
2013-01-26 15:20:00,39.8,29.4,30.12,NNE,28,0.0,0.0,66,0.00,,,0.00,125,Wunderground v.1.15,2013-01-26 20:20:00,
2013-01-26 15:30:00,39.9,29.5,30.12,NE,52,0.0,0.0,66,0.00,,,0.00,106,Wunderground v.1.15,2013-01-26 20:30:00,
2013-01-26 15:40:00,39.9,29.8,30.13,North,359,0.0,0.0,67,0.00,,,0.00,128,Wunderground v.1.15,2013-01-26 20:40:00,
2013-01-26 15:50:00,40.3,30.2,30.13,North,0,0.0,0.0,67,0.00,,,0.00,95,Wunderground v.1.15,2013-01-26 20:50:00,
2013-01-26 15:55:00,40.2,30.5,30.13,North,0,0.0,0.0,68,0.00,,,0.00,125,Wunderground v.1.15,2013-01-26 20:55:00,
2013-01-26 16:00:00,40.1,30.7,30.13,North,0,0.0,0.0,69,0.00,,,0.00,95,Wunderground v.1.15,2013-01-26 21:00:00,
2013-01-26 16:05:00,39.9,31.3,30.13,North,0,0.0,0.0,71,0.00,,,0.00,100,Wunderground v.1.15,2013-01-26 21:05:00,
2013-01-26 16:15:00,40.1,29.3,30.13,North,0,0.0,0.0,65,0.00,,,0.00,79,Wunderground v.1.15,2013-01-26 21:15:00,
2013-01-26 16:20:00,40.2,30.1,30.13,North,0,0.0,0.0,67,0.00,,,0.00,81,Wunderground v.1.15,2013-01-26 21:20:00,
2013-01-26 16:30:00,40.5,29.3,30.13,North,0,0.0,0.0,64,0.00,,,0.00,77,Wunderground v.1.15,2013-01-26 21:30:00,
2013-01-26 16:35:00,40.3,28.7,30.14,North,0,0.0,0.0,63,0.00,,,0.00,67,Wunderground v.1.15,2013-01-26 21:35:00,
2013-01-26 16:40:00,40.3,29.1,30.14,North,0,0.0,0.0,64,0.00,,,0.00,58,Wunderground v.1.15,2013-01-26 21:40:00,
2013-01-26 16:50:00,40.2,30.8,30.14,North,0,0.0,0.0,69,0.00,,,0.00,44,Wunderground v.1.15,2013-01-26 21:50:00,
2013-01-26 16:55:00,39.8,30.5,30.14,North,0,0.0,0.0,69,0.00,,,0.00,37,Wunderground v.1.15,2013-01-26 21:55:00,
2013-01-26 17:05:00,39.1,30.5,30.14,North,32767,-999.0,0.0,71,0.00,,,0.00,18,Wunderground v.1.15,2013-01-26 22:05:00,
2013-01-26 17:10:00,38.8,30.5,30.14,North,32767,-999.0,0.0,72,0.00,,,0.00,14,Wunderground v.1.15,2013-01-26 22:10:00,
2013-01-26 17:20:00,38.0,30.1,30.15,North,32767,-999.0,0.0,73,0.00,,,0.00,7,Wunderground v.1.15,2013-01-26 22:20:00,
2013-01-26 17:25:00,37.8,30.3,30.15,North,32767,-999.0,0.0,74,0.00,,,0.00,5,Wunderground v.1.15,2013-01-26 22:25:00,
2013-01-26 17:35:00,37.0,29.5,30.15,North,32767,-999.0,0.0,74,0.00,,,0.00,0,Wunderground v.1.15,2013-01-26 22:35:00,
2013-01-26 17:45:00,36.8,29.3,30.15,North,32767,-999.0,0.0,74,0.00,,,0.00,0,Wunderground v.1.15,2013-01-26 22:45:00,
2013-01-26 17:55:00,36.5,29.0,30.16,North,32767,-999.0,0.0,74,0.00,,,0.00,0,Wunderground v.1.15,2013-01-26 22:55:00,
2013-01-26 18:00:00,36.3,28.8,30.16,North,32767,-999.0,0.0,74,0.00,,,0.00,0,Wunderground v.1.15,2013-01-26 23:00:00,
2013-01-26 18:10:00,36.0,28.8,30.17,North,32767,-999.0,0.0,75,0.00,,,0.00,0,Wunderground v.1.15,2013-01-26 23:10:00,
2013-01-26 18:20:00,36.0,28.5,30.18,North,32767,-999.0,0.0,74,0.00,,,0.00,0,Wunderground v.1.15,2013-01-26 23:20:00,
2013-01-26 18:25:00,35.9,28.4,30.18,North,32767,-999.0,0.0,74,0.00,,,0.00,0,Wunderground v.1.15,2013-01-26 23:25:00,
2013-01-26 18:30:00,35.9,28.4,30.18,North,32767,-999.0,0.0,74,0.00,,,0.00,0,Wunderground v.1.15,2013-01-26 23:30:00,
2013-01-26 18:40:00,36.0,28.2,30.19,North,32767,-999.0,0.0,73,0.00,,,0.00,0,Wunderground v.1.15,2013-01-26 23:40:00,
2013-01-26 18:45:00,36.0,28.5,30.19,North,32767,-999.0,0.0,74,0.00,,,0.00,0,Wunderground v.1.15,2013-01-26 23:45:00,
2013-01-26 18:55:00,35.9,28.4,30.19,North,32767,-999.0,0.0,74,0.00,,,0.00,0,Wunderground v.1.15,2013-01-26 23:55:00,
2013-01-26 19:00:00,35.8,28.3,30.19,North,32767,-999.0,0.0,74,0.00,,,0.00,0,Wunderground v.1.15,2013-01-27 00:00:00,
2013-01-26 19:05:00,35.8,28.3,30.19,North,32767,-999.0,0.0,74,0.00,,,0.00,0,Wunderground v.1.15,2013-01-27 00:05:00,
2013-01-26 19:15:00,34.1,28.3,30.19,North,32767,-999.0,0.0,79,0.00,,,0.00,0,Wunderground v.1.15,2013-01-27 00:15:00,
2013-01-26 19:25:00,33.7,28.2,30.20,North,32767,-999.0,0.0,80,0.00,,,0.00,0,Wunderground v.1.15,2013-01-27 00:25:00,
2013-01-26 19:30:00,33.7,28.2,30.20,North,32767,-999.0,0.0,80,0.00,,,0.00,0,Wunderground v.1.15,2013-01-27 00:30:00,
2013-01-26 19:40:00,33.7,27.9,30.20,North,32767,-999.0,0.0,79,0.00,,,0.00,0,Wunderground v.1.15,2013-01-27 00:40:00,
2013-01-26 19:45:00,33.8,28.0,30.20,North,32767,-999.0,0.0,79,0.00,,,0.00,0,Wunderground v.1.15,2013-01-27 00:45:00,
2013-01-26 19:55:00,33.8,28.0,30.20,North,32767,-999.0,0.0,79,0.00,,,0.00,0,Wunderground v.1.15,2013-01-27 00:55:00,
2013-01-26 20:05:00,32.8,27.9,30.21,North,32767,-999.0,0.0,82,0.00,,,0.00,0,Wunderground v.1.15,2013-01-27 01:05:00,
2013-01-26 20:15:00,32.7,28.1,30.21,North,32767,-999.0,0.0,83,0.00,,,0.00,0,Wunderground v.1.15,2013-01-27 01:15:00,
2013-01-26 20:20:00,32.8,29.1,30.21,North,32767,-999.0,0.0,86,0.00,,,0.00,0,Wunderground v.1.15,2013-01-27 01:20:00,
2013-01-26 20:30:00,32.9,29.5,30.21,North,32767,-999.0,0.0,87,0.00,,,0.00,0,Wunderground v.1.15,2013-01-27 01:30:00,
2013-01-26 20:35:00,32.9,29.5,30.22,North,32767,-999.0,0.0,87,0.00,,,0.00,0,Wunderground v.1.15,2013-01-27 01:35:00,
2013-01-26 20:40:00,32.9,29.7,30.22,North,32767,-999.0,0.0,88,0.00,,,0.00,0,Wunderground v.1.15,2013-01-27 01:40:00,
2013-01-26 20:50:00,33.1,30.2,30.22,North,32767,-999.0,0.0,89,0.00,,,0.00,0,Wunderground v.1.15,2013-01-27 01:50:00,
2013-01-26 21:00:00,32.9,30.0,30.22,North,32767,-999.0,0.0,89,0.00,,,0.00,0,Wunderground v.1.15,2013-01-27 02:00:00,
2013-01-26 21:05:00,32.8,29.9,30.22,North,32767,-999.0,0.0,89,0.00,,,0.00,0,Wunderground v.1.15,2013-01-27 02:05:00,
2013-01-26 21:15:00,32.2,29.6,30.22,North,32767,-999.0,0.0,90,0.00,,,0.00,0,Wunderground v.1.15,2013-01-27 02:15:00,
2013-01-26 21:20:00,32.1,29.5,30.23,North,32767,-999.0,0.0,90,0.00,,,0.00,0,Wunderground v.1.15,2013-01-27 02:20:00,
2013-01-26 21:30:00,31.6,29.3,30.23,North,32767,-999.0,0.0,91,0.00,,,0.00,0,Wunderground v.1.15,2013-01-27 02:30:00,
2013-01-26 21:35:00,31.3,29.0,30.24,North,32767,-999.0,0.0,91,0.00,,,0.00,0,Wunderground v.1.15,2013-01-27 02:35:00,
2013-01-26 21:45:00,31.0,28.9,30.24,North,32767,-999.0,0.0,92,0.00,,,0.00,0,Wunderground v.1.15,2013-01-27 02:45:00,
2013-01-26 21:55:00,30.6,28.6,30.25,North,32767,-999.0,0.0,92,0.00,,,0.00,0,Wunderground v.1.15,2013-01-27 02:55:00,
2013-01-26 22:05:00,30.6,28.6,30.26,North,32767,-999.0,0.0,92,0.00,,,0.00,0,Wunderground v.1.15,2013-01-27 03:05:00,
2013-01-26 22:10:00,30.6,28.6,30.26,North,32767,-999.0,0.0,92,0.00,,,0.00,0,Wunderground v.1.15,2013-01-27 03:10:00,
2013-01-26 22:15:00,30.4,28.4,30.26,North,32767,-999.0,0.0,92,0.00,,,0.00,0,Wunderground v.1.15,2013-01-27 03:15:00,
2013-01-26 22:25:00,30.4,28.1,30.26,North,32767,-999.0,0.0,91,0.00,,,0.00,0,Wunderground v.1.15,2013-01-27 03:25:00,
2013-01-26 22:30:00,30.6,28.0,30.26,North,32767,-999.0,0.0,90,0.00,,,0.00,0,Wunderground v.1.15,2013-01-27 03:30:00,
2013-01-26 22:40:00,30.3,27.4,30.27,North,32767,-999.0,0.0,89,0.00,,,0.00,0,Wunderground v.1.15,2013-01-27 03:40:00,
2013-01-26 22:50:00,30.1,27.3,30.27,North,32767,-999.0,0.0,89,0.00,,,0.00,0,Wunderground v.1.15,2013-01-27 03:50:00,
2013-01-26 22:55:00,30.0,27.4,30.27,North,32767,-999.0,0.0,90,0.00,,,0.00,0,Wunderground v.1.15,2013-01-27 03:55:00,
2013-01-26 23:05:00,29.5,26.9,30.29,North,32767,-999.0,0.0,90,0.00,,,0.00,0,Wunderground v.1.15,2013-01-27 04:05:00,
2013-01-26 23:15:00,29.3,27.0,30.29,North,32767,-999.0,0.0,91,0.00,,,0.00,0,Wunderground v.1.15,2013-01-27 04:15:00,
2013-01-26 23:25:00,29.1,26.8,30.29,North,32767,-999.0,0.0,91,0.00,,,0.00,0,Wunderground v.1.15,2013-01-27 04:25:00,
2013-01-26 23:35:00,29.0,26.7,30.30,North,32767,-999.0,0.0,91,0.00,,,0.00,0,Wunderground v.1.15,2013-01-27 04:35:00,
2013-01-26 23:45:00,28.7,26.7,30.30,North,32767,-999.0,0.0,92,0.00,,,0.00,0,Wunderground v.1.15,2013-01-27 04:45:00,
2013-01-26 23:55:00,28.5,26.5,30.31,North,32767,-999.0,0.0,92,0.00,,,0.00,0,Wunderground v.1.15,2013-01-27 04:55:00,